Flag for Iran Weather past 2 weeks in Bandar-Abbas, Iran

Now
86 °F

Haze.


Feels Like: 91 °F
Forecast: 73 / 95 °F
Wind: 5 mph from East

Location: Bandarabbass


UV Index: 7 (High)

Visibility: 2 mi


Pressure: 29.86 "Hg

Humidity: 59%

Dew point: 70 °F

Location of Bandar-AbbasLocation

Historic Weather in Bandar-Abbas

°F

Bandar-Abbas temperature yesterday

Maximum temperature yesterday: 93 °F (at 11:00 AM)
Minimum temperature yesterday: 75 °F (at 5:30 AM)
Average temperature yesterday: 84 °F

Past Weeks' High & Low Weather Summary

 TemperatureHumidityPressure
High95 °F (Apr 14, 4:00 PM)100% (Apr 5, 7:00 AM)30.04 "Hg (Apr 5, 7:00 AM)
Low64 °F (Apr 7, 4:20 AM)18% (Apr 7, 12:30 PM)29.65 "Hg (Apr 3, 2:00 AM)
Average80 °F62%29.84 "Hg
* Reported Apr 1 9:30 AM — Apr 16 9:30 AM, Bandar-Abbas, Weather by CustomWeather, © 2014

Note: Actual official high and low records may vary slightly from our data, if they occured in-between our weather recording intervals... More about our weather records

Advertising

Historic Weather Conditions — Data for Previous 24 hours

 ConditionsComfort  
Time TempWeatherWind HumidityBarometerVisibility
9:30 AM
Apr 16
84 °FHaze.5 mph58%29.86 "Hg2 mi
9:00 AM82 °FHaze.5 mph62%29.83 "Hg2 mi
8:30 AM82 °FHaze.5 mph66%29.86 "Hg2 mi
8:00 AM79 °FFog.No wind84%29.83 "Hg2 mi
7:30 AM75 °FFog.5 mph89%29.83 "Hg2 mi
7:00 AM75 °FFog.5 mph83%29.83 "Hg2 mi
6:30 AM75 °FFog.5 mph83%29.80 "Hg2 mi
5:20 AM75 °FFog.5 mph89%29.80 "Hg2 mi
4:30 AM77 °FFog.9 mph83%29.80 "Hg2 mi
3:20 AM77 °FFog.9 mph83%29.80 "Hg2 mi
2:20 AM79 °FFog.9 mph84%29.83 "Hg2 mi
1:30 AM79 °FFog.7 mph84%29.83 "Hg2 mi
12:30 AM81 °FFog.9 mph84%29.83 "Hg2 mi
12:00 AM81 °FFog.12 mph84%29.83 "Hg2 mi
11:30 PM
Apr 15
81 °FFog.7 mph84%29.86 "Hg2 mi
11:00 PM81 °FHaze.7 mph84%29.86 "Hg2 mi
10:30 PM81 °FHaze.7 mph79%29.83 "Hg2 mi
10:00 PM81 °FHaze.5 mph79%29.83 "Hg2 mi
9:30 PM82 °FHaze.5 mph74%29.80 "Hg2 mi
9:00 PM82 °FHaze.5 mph74%29.80 "Hg2 mi
8:30 PM84 °FHaze.5 mph70%29.80 "Hg2 mi
8:00 PM84 °FHaze.7 mph70%29.80 "Hg2 mi
7:30 PM84 °FHaze.5 mph70%29.80 "Hg2 mi
7:00 PM84 °FHaze.7 mph70%29.77 "Hg2 mi
6:00 PM88 °FHaze.7 mph59%29.77 "Hg2 mi
5:30 PM90 °FHaze.12 mph38%29.77 "Hg2 mi
5:00 PM91 °FSandstorm.18 mph44%29.77 "Hg2 mi
4:30 PM90 °FSandstorm.18 mph49%29.77 "Hg2 mi
4:00 PM90 °FSandstorm.18 mph49%29.77 "Hg2 mi
2:50 PM91 °FSandstorm.16 mph52%29.80 "Hg2 mi
2:00 PM90 °FSunny.9 mph55%29.83 "Hg2 mi
1:00 PM91 °FSunny.9 mph46%29.83 "Hg2 mi
12:30 PM91 °FSunny.9 mph46%29.83 "Hg2 mi
11:30 AM91 °FSunny.9 mph46%29.86 "Hg2 mi
11:00 AM93 °FSunny.7 mph41%29.86 "Hg2 mi
10:30 AM91 °FSunny.5 mph46%29.86 "Hg2 mi
Weather by CustomWeather, © 2014

See weather overview